This demonstration page uses our WeatherBlox Daily Observations layout. Learn more.

Left ArrowRight Arrow

31.31129, -92.44514

Hourly Observations for February 8, 2018

Temp ( °F °C ) Dew Point ( °F °C ) Humidity (%) Winds ( mph kmh ) Pressure ( in mb ) Visibility ( mi km ) Precip ( " mm )
12:53 am 00:53 Clear 36 2.2 32 0 86 86 NNE 7 11 30.43 1030 10 16 0.00 0.00
1:53 am 01:53 Clear 35 1.7 32 0 89 89 NNE 7 11 30.43 1031 10 16 0.00 0.00
2:53 am 02:53 Clear 34 1.1 31 -0.6 89 89 NE 5 7 30.42 1030 10 16 0.00 0.00
3:53 am 03:53 Clear 34 1.1 31 -0.6 89 89 NNE 8 13 30.43 1030 10 16 0.00 0.00
4:53 am 04:53 Clear 33 0.6 30 -1.1 89 89 NNE 9 15 30.43 1030 9 14 0.00 0.00
5:53 am 05:53 Clear 32 0 30 -1.1 92 92 NNE 7 11 30.44 1031 9 14 0.00 0.00
6:53 am 06:53 Clear 32 0 30 -1.1 92 92 NNE 5 7 30.46 1032 9 14 0.00 0.00
7:53 am 07:53 Sunny 32 0 30 -1.1 92 92 NNE 6 9 30.47 1032 7 11 0.00 0.00
8:27 am 08:27 Mostly Sunny 32 0 30 -1.1 92 92 NNE 5 7 30.45 1031 7 11 0.00 0.00
8:53 am 08:53 Partly Cloudy 34 1.1 31 -0.6 89 89 NE 7 11 30.47 1032 7 11 0.00 0.00
9:53 am 09:53 Sunny 40 4.4 34 1.1 79 79 VRB 5 7 30.48 1032 9 14 0.00 0.00
10:53 am 10:53 Sunny 44 6.7 34 1.1 68 68 ESE 3 6 30.48 1032 10 16 0.00 0.00
11:53 am 11:53 Sunny 51 10.6 35 1.7 54 54 ESE 6 9 30.45 1031 10 16 0.00 0.00
12:53 pm 12:53 Sunny 57 13.9 35 1.7 44 44 VRB 3 6 30.40 1029 10 16 0.00 0.00
1:53 pm 13:53 Sunny 60 15.6 33 0.6 36 36 undefined N/A 30.35 1028 10 16 0.00 0.00
2:53 pm 14:53 Sunny 61 16.1 33 0.6 35 35 ENE 10 17 30.35 1028 10 16 0.00 0.00
3:53 pm 15:53 Sunny 60 15.6 33 0.6 36 36 E 10 17 30.34 1027 10 16 0.00 0.00
4:53 pm 16:53 Sunny 59 15 33 0.6 38 38 ENE 6 9 30.34 1027 10 16 0.00 0.00
5:53 pm 17:53 Clear 56 13.3 33 0.6 42 42 ENE 5 7 30.34 1027 10 16 0.00 0.00
6:53 pm 18:53 Clear 50 10 35 1.7 57 57 Calm 30.34 1028 10 16 0.00 0.00
7:53 pm 19:53 Clear 47 8.3 35 1.7 63 63 NE 3 6 30.35 1028 10 16 0.00 0.00
8:53 pm 20:53 Clear 45 7.2 39 3.9 80 80 E 3 6 30.33 1027 10 16 0.00 0.00
9:53 pm 21:53 Clear 45 7.2 39 3.9 80 80 Calm 30.31 1027 10 16 0.00 0.00
10:53 pm 22:53 Clear 43 6.1 39 3.9 86 86 Calm 30.31 1026 10 16 0.00 0.00
11:53 pm 23:53 Clear 41 5 39 3.9 93 93 Calm 30.29 1026 10 16 0.00 0.00

Powered by AerisWeather